HULIANWANG DIGUI-84

导读

**HULIANWANG DIGUI-84卫星**是中国于2025年9月27日发射的低轨互联网卫星,属于中国卫星互联网星座建设的组成部分。该卫星进入预定轨道后,将与其他已发射的星网卫星组网,为全球用户提供高速、稳定的互联网接入服务,推动天地一体化网络体系建设,助力中国空间基础设施的完善与发展。

Basic Information
目录编号:
65819
目录名称:
HULIANWANG DIGUI-84
国际标识:
2025-220C
轨道中心:
EARTH
卫星名称:
HULIANWANG DIGUI-84
卫星全名:
HULIANWANG DIGUI-84
卫星状态:
在轨 (已飞行353 天)
发射日期:
2025-09-27 UTC
国别 :
中国 (CN)
星等 :
--
This satellite is enrolled in the Space Conjunction Data Service (SCDS) and the current flight risk assessment level is: High Risk
Orbit Information
数据来源 国际轨道数据 AOE轨道数据
星历时间 2026-09-15T21:55:58+0800
8小时前
查看轨道信息
2026-09-14T13:00:00+0800
1天前
查看轨道信息
半长轴 7546.056km 7546.062km
偏心率 0.000146 0.0001986
轨道倾角 86.499° 86.501°
近地点辐角 86.244° 103.869°
升交点赤经 13.187° 13.652°
平近点角 273.887° 197.514°
近地点 1166.817km 1166.426km
远地点 1169.021km 1169.424km
周期 108.728分钟 108.728分钟
每日圈数 13.244109 13.244094
Detailed Information
使用方式:
暂无
2D Orbit Map
3D Orbit Map
Orbit Altitude Analysis Chart
Orbit Inclination Analysis Chart
Orbit Comprehensive Analysis Chart
View Comprehensive Chart
Conjunction Data List
Event ID Objects TCA Miss Dist (km) Collision Risk Probability Collision Risk Index (CRI) Action
CDM_260916-033402-181906-581927
2026-09-16T
03:34:37+0000
0.491 km
远距离
2.125028E-4 高风险 0.82
Miss Distance Evolution Trend with All Objects Subscribe to Flight Safety Assessment
Collision Probability Evolution Trend with All Objects Subscribe to Flight Safety Assessment